{"data":{"norad_id":66352,"epoch":"2026-09-20T13:37:47.311680Z","epoch_age_seconds":86877,"freshness":"FRESH","line1":"1 66352U 25254E   26263.56790870  .00023628  00000+0  70809-3 0  9998","line2":"2 66352  53.1594  45.0475 0000946  88.2000 271.9111 15.34406668 48842","mean_motion":15.34406668,"eccentricity":9.46e-5,"inclination_deg":53.1594,"raan_deg":45.0475,"arg_perigee_deg":88.2,"mean_anomaly_deg":271.9111,"bstar":0.00070809,"rev_number":4884,"period_min":93.847350251478,"perigee_km":462.03627996578,"apogee_km":463.33056318954,"semimajor_km":6840.8204215777,"source":"CELESTRAK","updated_at":"2026-09-21T09:00:35.879900Z"}}